Hourly Data Report for October 02, 2016

All times are specified in Local Standard Time (LST). Add 1 hour to adjust for Daylight Saving Time where and when it is observed.

CLYDE RIVER A
NUNAVUT

70°29'09.000" N
68°31'01.000" W
26.50 m
2400804
71090
YCY

Download Data

Hourly Data (October 2016)
Hourly Data Report for October 2, 2016
Temp Definition
°C
Dew Point Temp Definition
°C
Rel Hum Definition
%
Wind Dir Definition
10's deg

Wind Spd Definition
km/h
Visibility Definition
km
Stn Press Definition
kPa
Hmdx Definition


Wind Chill Definition


Weather Definition


TIME
00:00 Legend Double Dagger -1.0 -5.3 73 30 24 16.1 100.56   -7 LegendNANA
01:00 Legend Double Dagger -1.1 -4.8 76 26 18 16.1 100.56   -6 LegendNANA
02:00 Legend Double Dagger -1.2 -4.5 78 28 24 16.1 100.56   -7 LegendNANA
03:00 Legend Double Dagger -1.1 -3.8 82 28 18 16.1 100.56   -6 LegendNANA
04:00 Legend Double Dagger -1.5 -4.0 83 27 18 16.1 100.55   -7 LegendNANA
05:00 Legend Double Dagger -1.2 -4.7 77 28 18 16.1 100.53   -6 LegendNANA
06:00 Legend Double Dagger -2.1 -5.3 79 29 18 16.1 100.49   -8 LegendNANA
07:00 Legend Double Dagger -2.0 -5.2 79 29 17 16.1 100.48   -7 LegendNANA
08:00 Legend Double Dagger -2.0 -5.4 78 27 11 16.1 100.46   -6 LegendNANA
09:00 Legend Double Dagger -0.9 -5.3 72 25 13 16.1 100.43   -5 LegendNANA
10:00 Legend Double Dagger -0.4 -5.1 70 24 11 16.1 100.39   -4 LegendNANA
11:00 Legend Double Dagger -0.4 -5.6 68 28 15 16.1 100.39   -5 LegendNANA
12:00 Legend Double Dagger -0.9 -4.7 76 32 11 16.1 100.42   -5 LegendNANA
13:00 Legend Double Dagger -1.1 -4.6 77 28 17 16.1 100.41   -6 LegendNANA
14:00 Legend Double Dagger -1.3 -3.9 82 29 11 16.1 100.43   -5 Snow
15:00 Legend Double Dagger -1.6 -3.7 86 29 15 16.1 100.44   -6 Snow
16:00 Legend Double Dagger -1.6 -3.9 85 28 15 16.1 100.48   -6 Snow
17:00 Legend Double Dagger -1.9 -4.5 82 27 17 16.1 100.50   -7 LegendNANA
18:00 Legend Double Dagger -2.0 -4.9 81 28 21 16.1 100.50   -8 LegendNANA
19:00 Legend Double Dagger -2.4 -5.1 82 29 17 16.1 100.51   -8 LegendNANA
20:00 Legend Double Dagger -3.3 -5.8 83 27 11 16.1 100.48   -8 LegendNANA
21:00 Legend Double Dagger -3.4 -5.9 83 24 9 16.1 100.45   -7 LegendNANA
22:00 Legend Double Dagger -4.1 -6.4 84 23 4 16.1 100.40   -6 LegendNANA
23:00 Legend Double Dagger -2.4 -6.7 73   0 16.1 100.35     LegendNANA

Notes on Data Quality.

Legend

  • E = Estimated
  • M = Missing
  • NA = Not Available
  • ‡ = Partner data that is not subject to review by the National Climate Archives
Date modified: